Location: ???????
(42.0152°N, 44.2616°E)
Time: 22:40:42
(UTC+00:00)

Daily predictions for brighter satellites

Satellite Brightness Start Highest point End
(mag) Time Altitude Azimuth Time Altitude Azimuth Time Altitude Azimuth
Cosmos 1300 Rocket 3.8 17:04:54 10° N 17:09:08 52° E 17:13:20 10° SSE
Nadezhda 3 Rocket 4.0 17:07:35 10° S 17:13:43 82° E 17:19:54 10° N
Cosmos 332 Rocket 3.9 17:16:20 10° SSW 17:21:10 87° WNW 17:26:00 10° NNE
SL-23 DEB 4.4 17:23:28 10° WSW 17:26:41 59° NNW 17:31:11 10° NE
SJ-6B 4.3 17:23:55 10° SSW 17:27:45 38° W 17:31:36 10° NNW
OBJECT-B 3.0 17:26:45 10° SSW 17:29:27 25° W 17:32:10 10° NW
Resurs 1-3 3.9 17:26:34 10° S 17:30:54 69° WSW 17:35:18 10° NNW
Cosmos 1842 3.7 17:27:54 10° SSE 17:31:39 44° E 17:35:24 10° NNE
Cosmos 2082 3.8 17:26:09 10° NNW 17:31:54 86° WSW 17:37:38 10° SSE
Cosmos 1726 3.6 17:30:09 10° NNE 17:32:57 21° ENE 17:35:20 12° ESE
USA 238 DEB 3.9 17:27:04 10° S 17:33:11 45° ESE 17:39:34 10° NE
USA 238 3.9 17:27:12 10° S 17:33:17 45° ESE 17:39:39 10° NE
Cosmos 1766 3.2 17:30:31 10° N 17:34:24 76° E 17:38:14 10° SSE
Cosmos 1315 Rocket 4.4 17:31:19 10° NNE 17:34:32 21° ENE 17:37:21 12° ESE
MetOp-B 4.5 17:29:55 10° SE 17:35:05 53° ENE 17:40:18 10° N
SL-16 R/B 3.3 17:31:41 10° SSE 17:36:02 23° E 17:40:24 10° NE
Cosmos 1697 Rocket 3.7 17:30:59 10° SW 17:36:26 50° WNW 17:41:54 10° NNE
IGS 5A 3.5 17:33:09 10° SSE 17:37:17 73° ENE 17:41:27 10° N
USA 215 3.9 17:32:37 10° ENE 17:38:19 31° SE 17:44:00 10° S
Cosmos 2278 3.7 17:35:33 10° SSW 17:41:15 81° ESE 17:46:57 10° NNE
Cosmos 2322 Rocket 3.5 17:38:24 12° SE 17:41:59 20° E 17:46:01 10° NE
Okean 1 Rocket 3.9 17:39:04 10° N 17:43:02 34° ENE 17:46:12 15° SE
BREEZE-M DEB (TANK) 3.3 17:41:38 10° W 17:43:25 21° SSW 17:45:44 12° SSE
SPOT 5 4.4 17:39:35 11° ESE 17:43:32 25° ENE 17:47:39 10° NNE
Cosmos 2360 Rocket 4.1 17:42:38 10° ESE 17:44:01 11° E 17:45:25 10° E
Ariane Rocket 3.7 17:40:34 10° S 17:45:31 53° W 17:50:31 10° NNW
Meteor 1-22 Rocket 4.3 17:40:10 10° N 17:46:11 74° E 17:51:48 11° SSE
Cosmos 1470 3.6 17:42:54 10° N 17:46:35 34° ENE 17:49:14 16° SE
Aureole 2 Rocket 1.6 17:49:11 10° NNW 17:51:39 72° WSW 17:53:10 20° S
Cosmos 2221 Rocket 4.2 17:48:36 10° SSW 17:53:00 58° W 17:57:24 10° N
SWAS 4.4 17:50:45 10° SSW 17:55:01 76° ESE 17:59:20 10° NNE
Resurs 01 Rocket 2.0 17:52:48 10° S 17:57:09 63° W 18:01:33 10° NNW
Cosmos 1624 Rocket 4.0 17:52:56 10° SSW 17:58:16 81° ESE 18:03:36 10° NNE
CZ-2C R/B 3.8 17:53:36 10° NNE 17:58:22 76° ESE 18:03:08 10° S
Cosmos 1378 Rocket 3.5 17:54:54 10° S 17:59:11 75° E 18:03:33 10° NNE
CENTAUR R/B 2.4 17:54:10 10° SSW 17:59:46 63° ESE 18:06:28 10° NE
Lacrosse 5 3.3 17:55:31 10° NNW 18:00:00 30° NNE 18:04:28 10° E
Okean 2 Rocket 3.8 17:56:31 10° NNW 18:00:54 55° W 18:05:17 10° S
Cosmos 1980 Rocket 2.8 17:57:14 10° SW 18:02:47 59° WNW 18:08:21 10° NNE
Genesis I 3.9 18:07:26 19° SSE 18:09:25 32° ESE 18:12:56 10° NE
Cosmos 2151 Rocket 4.1 18:05:10 10° NNW 18:09:29 56° W 18:13:40 11° S
SPOT 1/Viking Rocket 3.5 18:08:06 15° SSE 18:12:21 87° WSW 18:17:31 10° NNW
Cosmos 1140 Rocket 3.7 18:07:50 10° NNW 18:13:04 68° WSW 18:17:11 16° S
Cosmos 1626 4.2 18:15:24 12° E 18:15:32 12° E 18:17:06 10° ENE
Terra 2.8 18:13:13 19° ESE 18:15:50 32° ENE 18:20:04 10° N
Cosmos 292 Rocket 3.9 18:16:01 15° S 18:19:49 53° ESE 18:24:31 10° NNE
Cosmos 1953 3.8 18:18:33 10° NNE 18:21:54 24° ENE 18:23:15 20° ESE
Cosmos 1452 Rocket 3.9 18:18:41 20° SSE 18:21:59 43° ESE 18:26:57 10° NNE
USA 245 3.8 18:20:28 20° S 18:23:17 75° WSW 18:28:22 10° NNW
Cosmos 1400 Rocket 4.5 18:21:23 10° NNW 18:24:45 28° W 18:28:05 10° SSW
Cosmos 220 Rocket 4.0 18:20:54 10° SSW 18:25:15 87° WNW 18:29:34 10° NNE
Cosmos 2056 Rocket 4.1 18:21:46 10° SSW 18:26:51 58° WNW 18:32:03 10° NNE
Cosmos 1844 Rocket 4.3 18:23:34 10° N 18:28:02 23° NE 18:31:43 13° E
H-2A R/B 4.3 18:25:02 10° NE 18:28:41 30° E 18:29:33 28° ESE
Cosmos 1674 3.5 18:28:02 29° ESE 18:28:49 33° E 18:32:12 10° NNE
CARTOSAT-1 3.5 18:27:28 25° SSE 18:29:57 90° NW 18:34:17 10° NNW
ARIANE 5 R/B 2.6 18:33:34 26° S 18:36:03 81° WSW 18:40:31 10° NNW
Cosmos 2333 Rocket 4.0 18:36:05 14° E 18:36:16 14° E 18:39:11 10° ENE
Cosmos 1975 Rocket 3.2 18:34:49 31° SSE 18:36:37 52° E 18:40:52 10° NNE
Cosmos 1908 4.3 18:33:46 10° NNE 18:37:15 30° ENE 18:38:10 27° ESE
Cosmos 2263 Rocket 2.3 18:33:51 10° NNW 18:39:31 70° WSW 18:42:53 25° S
Cosmos 1707 3.1 18:37:44 18° SSW 18:40:26 63° W 18:44:18 10° N
Cosmos 1025 Rocket 3.9 18:41:59 29° ESE 18:42:55 32° E 18:46:49 10° NNE
NOSS 8 (A) 4.4 18:46:35 51° ESE 18:46:35 51° ESE 18:49:29 10° NE
Cosmos 2173 Rocket 4.2 18:41:32 10° N 18:47:49 58° E 18:51:05 29° SSE
NOSS 3-2 (C) 3.5 18:42:54 10° SW 18:48:25 74° NW 18:54:48 10° NNE
Cosmos 1727 Rocket 4.1 18:43:25 15° S 18:48:51 81° W 18:55:12 10° N
Spot 2 Rocket 4.0 18:46:52 22° S 18:50:01 55° W 18:55:00 10° NNW
Cosmos 2285 Rocket 4.4 18:46:07 10° SSW 18:52:30 66° WNW 18:58:56 10° NNE
In-Cosmos 22 4.1 18:50:51 20° SSW 18:54:36 80° W 18:59:54 10° N
Cosmos 1340 4.0 19:01:03 25° E 19:01:03 25° E 19:03:51 10° NE
CZ-4B DEB 4.0 19:02:22 78° SE 19:02:31 83° E 19:05:42 10° N
Cosmos 1802 Rocket 4.2 18:56:29 10° N 19:02:40 60° E 19:05:28 33° SE
Cosmos 1741 Rocket 4.1 18:59:52 10° NNW 19:05:06 64° ENE 19:07:03 37° SE
ATLAS 3B R/B 3.4 19:05:09 28° ESE 19:05:55 28° ESE 19:11:26 10° NE
ERS-1 Rocket 3.4 19:05:12 28° SSW 19:07:39 56° W 19:12:37 10° NNW
Cosmos 1726 4.1 19:05:09 10° NW 19:08:01 22° W 19:09:48 16° SW
BREEZE-M DEB (TANK) 4.4 18:52:42 10° SSW 19:08:01 40° SSE 19:12:28 10° E
Cosmos 2219 Rocket 3.5 19:08:11 23° ESE 19:08:23 23° E 19:12:43 10° NE
Cosmos 1315 Rocket 4.4 19:07:29 10° NNW 19:11:05 29° W 19:13:03 20° SW
GEOS 3 Rocket 3.9 19:11:36 33° ESE 19:14:01 67° NE 19:19:20 10° NNW
SL-16 R/B 3.0 19:14:15 10° SW 19:19:44 51° WNW 19:25:17 10° NNE
SPOT 5 3.9 19:18:49 25° SSW 19:21:21 43° W 19:26:13 10° NNW
USA 215 3.4 19:15:07 10° NE 19:21:39 75° NW 19:28:10 10° WSW
Cosmos 1544 Rocket 3.5 19:18:18 10° N 19:22:48 78° E 19:23:40 56° SSE
Meteor 2-5 Rocket 4.1 19:22:54 38° SE 19:24:09 45° E 19:29:25 10° NNE
Meteor 1-16 Rocket 4.3 19:19:11 10° NNW 19:24:42 69° W 19:26:47 38° SSW
Cosmos 2322 Rocket 2.7 19:20:06 11° SW 19:25:30 59° WNW 19:31:10 10° NNE
COSMOS 2428 3.8 19:26:48 27° ESE 19:26:58 27° ESE 19:31:41 10° NE
Cosmos 2360 Rocket 2.1 19:24:18 32° SSW 19:27:04 85° ESE 19:32:45 10° NNE
Cosmos 1455 Rocket 3.5 19:24:00 10° NNW 19:28:21 54° W 19:29:34 40° SW
Cosmos 2061 Rocket 4.0 19:22:56 10° N 19:29:24 75° E 19:31:53 40° SSE
Cosmos 2237 4.4 19:29:25 21° SW 19:33:16 71° WNW 19:38:58 10° NNE
Cosmos 1461 3.7 19:29:44 10° NNW 19:33:46 41° NE 19:34:32 37° E
Cosmos 2322 4.0 19:33:51 42° SE 19:34:39 45° ESE 19:40:01 10° NE
SL-24 R/B 4.3 19:33:10 10° N 19:38:07 85° W 19:39:21 51° SSW
Cosmos 1459 Rocket 4.3 19:32:50 10° NNW 19:38:46 58° W 19:41:23 33° SSW
Lacrosse 5 1.9 19:38:16 10° NW 19:43:17 62° SW 19:44:01 55° S
Lacrosse 5 rocket 3.3 19:46:40 15° ENE 19:46:40 15° ENE 19:47:28 10° ENE
Cosmos 1110 Rocket 4.2 19:45:01 34° SW 19:47:12 67° WNW 19:52:24 10° NNE
Cosmos 2278 Rocket 4.3 19:45:15 10° N 19:49:11 19° NE 19:52:56 11° E
Cosmos 1626 3.1 19:49:52 37° W 19:50:20 38° WNW 19:53:49 10° N
CENTAUR R/B 4.4 19:45:39 10° W 19:51:00 30° NW 19:57:13 10° NNE
Meteor 2-10 Rocket 4.2 19:46:16 10° N 19:51:06 40° ENE 19:52:03 36° E
Cosmos 1536 Rocket 3.5 19:50:50 67° SSW 19:51:24 83° W 19:55:54 10° N
Terra 3.3 19:52:06 23° SW 19:53:34 27° W 19:57:37 10° NW
Cosmos 1864 Rocket 4.5 19:47:32 10° N 19:53:45 76° W 19:55:49 44° S
USA 267 3.4 19:50:07 27° ESE 19:53:54 70° NE 20:00:25 10° NW
Cosmos 2123 Rocket 4.2 19:53:09 34° SSW 19:55:58 67° W 20:02:16 10° N
Cosmos 1953 4.0 19:54:53 10° NW 19:58:11 24° W 19:58:56 23° WSW
Cosmos 1455 4.2 19:57:56 10° NNE 20:00:33 18° ENE 20:00:33 18° ENE
ATLAS CENTAUR R/B 2.9 19:57:46 10° NNW 20:01:42 32° NE 20:02:59 27° E
Cosmos 1300 2.9 20:01:46 10° NNW 20:05:14 65° WNW 20:05:14 65° WNW
Cosmos 405 4.0 20:08:12 10° NNW 20:10:51 42° NW 20:10:51 42° NW
Cosmos 1844 Rocket 2.9 20:06:45 10° NNW 20:12:19 58° WSW 20:13:22 50° SSW
Cosmos 1447 Rocket 4.4 20:10:53 51° S 20:12:35 79° E 20:18:48 10° N
Cosmos 968 Rocket 3.9 20:08:01 10° N 20:13:00 50° ENE 20:14:00 44° ESE
Cosmos 2333 4.3 20:11:15 41° SW 20:13:19 75° WNW 20:19:05 10° NNE
Aureole 1 Rocket 4.4 20:08:28 10° NNW 20:13:59 53° WSW 20:15:56 40° SSW
Cosmos 2233 Rocket 3.9 20:08:17 10° N 20:14:26 83° W 20:16:05 52° S
Cosmos 2333 Rocket 2.2 20:18:02 47° SW 20:19:46 80° WNW 20:25:32 10° NNE
COBE Rocket 3.9 20:23:01 67° SSE 20:23:42 84° ENE 20:28:46 10° N
Spot 4 3.9 20:24:31 62° SW 20:24:54 65° WSW 20:29:41 10° NNW
BREEZE-M DEB (TANK) 3.7 20:23:41 10° W 20:26:42 44° N 20:34:12 10° ENE
Meteor 1-24 Rocket 3.8 20:27:54 47° SW 20:29:08 61° WNW 20:34:29 10° N
Cosmos 2058 Rocket 4.0 20:28:03 10° N 20:32:12 36° ENE 20:32:22 36° E
Cosmos 2228 3.0 20:30:55 10° N 20:35:12 77° WNW 20:35:12 77° WNW
Thor Agena Rocket 3.8 20:36:28 10° NNE 20:41:36 51° E 20:41:56 50° ESE
Cosmos 1844 4.3 20:37:36 10° NW 20:42:45 39° WSW 20:43:14 38° WSW
ALOS 2 2.8 20:48:23 62° W 20:48:23 62° W 20:52:33 10° NNW
Centaur D AC-29 4.5 20:46:56 10° WSW 20:50:17 13° SW 20:50:17 13° SW
Cosmos 2219 Rocket 2.8 20:49:52 35° WSW 20:51:55 52° WNW 20:57:29 10° NNE
Cosmos 1464 Rocket 4.1 20:45:50 10° N 20:52:10 72° E 20:53:49 51° SSE
SL-16 R/B 4.1 20:52:25 16° ESE 20:52:45 16° E 20:56:06 10° ENE
Cosmos 1726 Rocket 3.6 20:48:59 10° N 20:53:18 77° WNW 20:53:18 77° WNW
ATLAS 3B R/B 3.1 20:52:20 25° WSW 20:56:09 57° NW 21:02:48 10° NNE
PSLV R/B 4.3 20:52:57 10° NNE 20:56:36 42° E 20:56:36 42° E
Cosmos 2237 Rocket 2.3 20:59:59 55° SE 21:00:26 56° ESE 21:05:57 10° NNE
NOSS 0 Rocket 3.8 20:59:36 58° S 21:00:50 77° ESE 21:07:04 10° NNE
Cosmos 1892 Rocket 3.7 21:03:16 66° WNW 21:03:16 66° WNW 21:07:33 10° N
Cosmos 1606 Rocket 4.3 21:01:27 10° NNW 21:05:31 43° W 21:05:31 43° W
Cosmos 389 Rocket 4.4 21:07:16 10° NNW 21:09:06 24° NW 21:09:06 24° NW
COSMOS 2428 3.5 21:08:47 32° WSW 21:10:58 46° WNW 21:16:29 10° NNE
Cosmos 1184 Rocket 4.4 21:14:02 34° N 21:14:02 34° N 21:16:02 10° N
Cosmos 1346 Rocket 4.5 21:15:41 25° WNW 21:15:45 25° WNW 21:19:06 10° NNW
EO 1 Del DPAF 4.2 21:15:01 10° NNE 21:17:48 40° ENE 21:17:48 40° ENE
SJ 16-02 3.8 21:18:01 10° NNE 21:20:49 16° ENE 21:23:21 11° E
SL-4 R/B 4.2 21:23:52 15° E 21:23:52 15° E 21:24:40 10° ENE
Cosmos 2346 Rocket 4.4 21:20:48 55° SSW 21:22:10 76° W 21:28:19 10° N
Cosmos 1486 Rocket 4.3 21:17:44 10° NNW 21:22:46 50° WSW 21:22:52 50° WSW
Cosmos 2034 Rocket 3.9 21:16:33 10° N 21:22:47 86° E 21:24:16 55° SSE
Lacrosse 5 rocket 3.0 21:22:12 21° WNW 21:23:15 25° NNW 21:26:15 10° NNE
SL-8 R/B 3.9 21:20:52 10° WNW 21:24:52 59° W 21:24:52 59° W
SL-16 R/B 4.5 21:21:58 10° ESE 21:26:33 22° ENE 21:31:08 10° NNE
CZ-2D R/B 4.0 21:24:16 10° NE 21:27:29 16° E 21:28:51 15° ESE
Cosmos 1354 Rocket 3.9 21:27:01 10° NNW 21:32:24 86° WSW 21:33:06 68° S
Meteor 2-1 Rocket 4.2 21:27:15 10° NNW 21:32:42 65° W 21:33:25 59° SW
Resurs 1-4 Rocket 3.9 21:29:22 10° NE 21:33:09 20° E 21:34:35 18° ESE
Cosmos 2278 Rocket 2.1 21:28:14 10° NNW 21:33:54 76° WSW 21:34:44 63° S
Cosmos 192 4.2 21:35:47 72° SW 21:36:13 80° WNW 21:41:10 10° NNE
Cosmos 1455 3.8 21:32:57 10° NNW 21:35:26 26° WNW 21:35:26 26° WNW
Cosmos 1607 4.2 21:30:25 10° NNW 21:36:50 69° NE 21:39:59 31° SE
USA 267 3.9 21:37:26 34° WSW 21:37:26 34° WSW 21:43:03 10° WNW
Cosmos 1626 Rocket 3.5 21:37:19 86° WNW 21:37:19 86° WNW 21:41:48 10° N
ATLAS CENTAUR R/B 3.1 21:36:18 50° SW 21:38:04 85° SE 21:51:07 10° NE
Tsikada Rocket 3.9 21:38:09 54° S 21:39:43 86° E 21:45:56 10° N
ATLAS CENTAUR R/B 3.1 21:36:39 10° NW 21:39:06 25° W 21:39:06 25° W
Okean 1-7 Rocket 4.1 21:40:33 47° W 21:40:39 47° WNW 21:45:00 10° N
Cosmos 1602 Rocket 3.5 21:41:57 76° ESE 21:42:00 76° E 21:46:29 10° N
Cosmos 1758 Rocket 4.0 21:48:18 51° ESE 21:48:33 51° E 21:52:52 10° NNE
Cosmos 1328 4.4 21:52:35 48° NW 21:52:35 48° NW 21:55:58 10° N
ADEOS II 4.3 21:56:10 10° NE 21:59:07 15° E 22:01:40 11° ESE
GP-B 3.8 22:06:21 10° NNW 22:10:29 39° W 22:10:39 39° W
USA 32 4.4 22:08:40 10° NNW 22:13:42 48° W 22:14:28 45° WSW
Cosmos 1867 4.3 22:11:49 10° NW 22:16:28 35° WSW 22:16:28 35° WSW
Cosmos 1812 Rocket 3.8 22:15:56 10° NNW 22:20:10 52° W 22:20:11 52° W
USA 229 DEB 4.3 22:18:10 31° SSE 22:20:12 39° ESE 22:26:19 10° NE
USA 229 4.3 22:18:14 31° SSE 22:20:15 38° ESE 22:26:21 10° NE
Helios 1A 2.8 22:20:18 75° SW 22:20:28 77° WSW 22:24:40 10° NNW
Cosmos 1892 2.6 22:26:31 79° SE 22:26:38 80° E 22:30:31 10° N
UNK 4.5 22:27:36 27° SE 22:29:47 49° ENE 22:34:13 10° N
Cosmos 2058 4.3 22:28:45 25° ESE 22:29:55 30° E 22:33:30 10° NNE
Meteor 1-4 Rocket 4.4 22:27:22 10° NW 22:29:11 21° WNW 22:29:11 21° WNW
Cosmos-2242 2.9 22:27:07 10° NNW 22:31:30 71° W 22:31:59 63° SW
NOSS 3-1 (C) 3.1 22:31:25 47° S 22:32:56 73° ESE 22:38:58 10° NE
SL-16 R/B 2.3 22:34:17 43° SW 22:36:11 71° WNW 22:41:52 10° NNE
CZ-4 R/B 4.2 22:31:48 10° N 22:36:17 49° WNW 22:37:17 42° WSW
Cosmos 1943 Rocket 2.3 22:31:47 10° NNW 22:37:17 69° ENE 22:41:11 20° SE
MOZ.5/SAFIR/RUBIN 5/SL-8 3.8 22:38:09 52° SSW 22:39:03 65° W 22:43:46 10° NNW
Cosmos 1408 2.4 22:39:06 86° SW 22:39:10 88° W 22:42:51 10° N
NOSS 3-1 (A) 3.7 22:38:12 35° SSE 22:39:51 45° ESE 22:45:30 10° NE
NOSS 2-3 (E) 3.5 22:39:32 57° SSE 22:40:06 65° ESE 22:44:38 10° NE
NPP 3.8 22:37:00 10° NNE 22:42:22 64° ESE 22:44:33 36° S
Cosmos 2237 Rocket 3.9 22:41:47 15° W 22:44:51 23° NW 22:49:19 10° N
Meteor 1-27 4.2 22:39:55 10° NNW 22:45:24 61° W 22:47:10 41° SSW
Helios 1B rocket 2.6 22:42:07 10° NNE 22:46:12 66° ESE 22:47:06 49° SSE
Cosmos 405 Rocket 2.7 22:46:19 57° SE 22:46:49 65° E 22:50:28 10° NNE
Cosmos 1634 Rocket 4.5 22:42:58 10° NNW 22:48:52 44° W 22:51:00 33° SW
Cosmos 1825 Rocket 4.0 22:48:45 43° WSW 22:49:33 49° WNW 22:53:55 10° N
Cosmos 468 Rocket 4.2 22:47:57 36° SSE 22:49:50 60° ESE 22:54:57 10° NNE
Cosmos 1356 3.3 22:52:50 68° W 22:52:50 68° W 22:56:14 10° N
Exosat Rocket 4.2 22:49:06 31° S 22:52:52 77° ESE 22:58:36 10° NNE
Cosmos 2279 Rocket 4.1 22:50:01 10° NNW 22:56:10 62° W 22:58:57 33° SSW
SJ 16-02 1.5 22:55:27 10° NNW 22:59:41 49° WSW 23:00:17 45° SW
Cosmos 2369 Rocket 2.9 22:54:37 10° NNW 23:00:16 56° ENE 23:05:51 10° SE
Cosmos 2221 3.2 22:56:16 10° N 23:00:30 51° E 23:03:04 22° SSE
SL-4 R/B 2.7 22:59:24 28° WNW 23:00:51 41° NNW 23:04:14 10° NE
Cosmos 1869 3.7 22:57:30 10° NNW 23:01:27 47° W 23:01:56 44° WSW
CZ-2D R/B 2.2 23:02:48 10° N 23:07:58 62° WNW 23:10:10 33° SW
SL-16 R/B 2.5 23:06:04 27° S 23:09:36 66° WSW 23:15:47 10° NNW
Cosmos 1953 Rocket 4.0 23:08:38 37° WSW 23:09:43 45° WNW 23:13:55 10° N
Cosmos 2297 3.9 23:05:23 10° NW 23:10:47 49° WSW 23:13:11 31° SSW
Resurs 1-4 Rocket 2.4 23:08:06 10° N 23:13:17 54° WNW 23:15:40 30° SW
Cosmos 1825 2.3 23:13:04 46° SW 23:13:50 57° W 23:17:34 10° N
Meteor 2-2 Rocket 4.3 23:10:16 10° N 23:16:19 85° W 23:20:42 20° S
Cosmos 1763 Rocket 3.4 23:14:39 34° SSW 23:16:54 79° WNW 23:22:01 10° NNE
USA 281 3.8 23:11:24 10° SE 23:17:49 59° ENE 23:24:16 10° NNW
Cosmos 1437 Rocket 2.6 23:14:37 10° N 23:18:35 88° E 23:20:21 31° S
Cosmos 1242 Rocket 3.6 23:15:33 10° N 23:18:57 42° ENE 23:21:43 14° SE
IRS-1D 3.8 23:14:41 10° NNE 23:19:51 63° ESE 23:23:03 23° S
X-37B 0.5 23:19:43 59° S 23:19:57 62° SSE 23:23:05 10° ENE
NOSS 2-3 (D) 3.8 23:18:50 32° WSW 23:20:31 57° NW 23:25:09 10° NNE
SeaSat 1 2.7 23:16:41 10° NNE 23:21:34 60° ESE 23:24:17 26° S
Meteor 1-29 2.8 23:23:34 10° N 23:27:00 76° WNW 23:28:03 42° SSW
CBERS-1 4.3 23:25:07 10° NNE 23:30:13 63° ESE 23:33:53 19° S
OPS 6432 4.4 23:27:05 10° NW 23:30:15 66° SW 23:34:14 10° SSE
Nadezhda 4 Rocket 4.1 23:27:21 25° SSW 23:30:58 63° W 23:37:05 10° N
Cosmos 1842 Rocket 3.4 23:27:01 10° NNW 23:31:21 74° W 23:33:51 24° S
Cosmos 1656 Rocket 4.1 23:27:03 10° NNW 23:32:43 64° ENE 23:38:19 10° SE
ADEOS Rocket 3.4 23:25:14 10° SSE 23:32:53 83° WSW 23:39:59 10° NNW
Cosmos 2026 Rocket 4.3 23:28:58 15° S 23:34:13 66° E 23:40:28 10° NNE
Cosmos 1633 2.7 23:35:13 26° S 23:37:02 66° E 23:40:32 10° NNE
ATLAS 5 CENTAUR R/B 3.5 23:35:27 10° SSE 23:38:05 18° ESE 23:40:51 10° ENE
Meteor 2-8 Rocket 4.4 23:32:49 10° NNW 23:38:55 70° W 23:44:01 15° S
ADEOS II 2.1 23:34:03 10° N 23:39:18 68° WNW 23:42:36 23° SSW
Cosmos 1606 2.6 23:37:34 10° N 23:41:27 89° W 23:44:12 18° S
BREEZE-M DEB (TANK) 4.3 23:25:38 10° WNW 23:43:23 78° SW 23:47:29 10° SE
CZ-4C R/B 3.5 23:42:58 10° SSE 23:46:28 60° ENE 23:49:54 10° N
Aureole 3 Rocket 2.7 23:44:16 10° N 23:47:43 78° W 23:51:38 13° S
Cosmos 1898 Rocket 3.6 23:44:41 10° NNW 23:49:49 56° WSW 23:54:44 11° S
Cosmos 1933 4.5 23:49:33 10° N 23:53:28 43° ENE 23:57:22 10° SSE
Meteor 1-28 Rocket 3.3 23:52:57 19° S 23:55:33 58° W 23:59:18 10° NNW
